Weather History for KCDR - March, 2012

Change the Weather History Date:

Friday, March 30, 2012

  Actual Average Record
Temperature  
Mean Temperature 59 °F 40 °F  
Max Temperature 78 °F 55 °F 83 °F (1978)
Min Temperature 40 °F 25 °F 1 °F (1954)
Degree Days  
Heating Degree Days 6 25  
Month to date heating degree days 505 881  
Since 1 July heating degree days 5338 6133  
Cooling Degree Days 0 0  
Month to date cooling degree days 0 0  
Year to date cooling degree days 0 0  
Growing Degree Days 8 (Base 50)    
Moisture  
Dew Point 30 °F    
Average Humidity 39    
Maximum Humidity 62    
Minimum Humidity 16    
Precipitation  
Precipitation 0.00 in 0.05 in 1.07 in (1998)
Month to date precipitation T 1.19  
Year to date precipitation 1.21 2.16  
Sea Level Pressure  
Sea Level Pressure 29.71 in    
Wind  
Wind Speed 9 mph (WSW)    
Max Wind Speed 25 mph    
Max Gust Speed 32 mph    
Visibility 9 miles    
Events      
T = Trace of Precipitation, MM = Missing Value Source: NWS Daily Summary

Daily Weather History Graph

Daily Weather History Graph

Search for Another Location

Airport or City:

Trip Planner

Search our weather history database for the weather conditions in past years. The results will help you decide how hot, cold, wet, or windy it might be!

Date:

Astronomy

Mar. 30, 2012 Rise Set
Actual Time 6:37 AM MDT 7:16 PM MDT
Civil Twilight 6:08 AM MDT 7:45 PM MDT
Nautical Twilight 5:34 AM MDT 8:19 PM MDT
Astronomical Twilight 4:59 AM MDT 8:54 PM MDT
Moon 11:38 AM MDT (3/30) 2:01 AM MDT (3/30)
Length of Visible Light 13h 36m
Length of Day
12h 39m
Waxing Crescent, 49% of the Moon is Illuminated
Mar 30
Waxing Crescent
Mar 30
First Quarter
Apr 6
Full
Apr 13
Last Quarter
Apr 21
New

Hourly Weather History & Observations

Time (MDT) Temp. Windchill Dew Point Humidity Pressure Visibility Wind Dir Wind Speed Gust Speed Precip Events Conditions
12:53 AM 57.0 °F - 30.0 °F 36% 29.74 in 10.0 mi SSW 6.9 mph - N/A   Mostly Cloudy
1:53 AM 53.1 °F - 30.0 °F 41% 29.72 in 10.0 mi SW 9.2 mph - N/A   Clear
2:53 AM 60.1 °F - 30.0 °F 32% 29.69 in 10.0 mi WSW 15.0 mph 20.7 mph N/A   Overcast
3:53 AM 51.1 °F - 30.0 °F 44% 29.70 in 10.0 mi WSW 6.9 mph - N/A   Clear
4:53 AM 46.9 °F - 30.0 °F 52% 29.73 in 10.0 mi WSW 5.8 mph - N/A   Clear
5:53 AM 43.0 °F 37.7 °F 30.0 °F 60% 29.75 in 10.0 mi SSW 9.2 mph - N/A   Clear
6:53 AM 42.1 °F 37.7 °F 30.0 °F 62% 29.78 in 10.0 mi WSW 6.9 mph - N/A   Clear
7:53 AM 50.0 °F - 32.0 °F 50% 29.81 in 10.0 mi West 3.5 mph - N/A   Clear
8:53 AM 57.0 °F - 32.0 °F 39% 29.78 in 10.0 mi WSW 9.2 mph - N/A   Clear
9:53 AM 63.0 °F - 32.0 °F 31% 29.78 in 10.0 mi West 21.9 mph - N/A   Clear
10:53 AM 66.9 °F - 28.0 °F 23% 29.76 in 10.0 mi WNW 16.1 mph 26.5 mph N/A   Clear
11:53 AM 71.1 °F - 28.9 °F 21% 29.74 in 10.0 mi WNW 20.7 mph 26.5 mph N/A   Clear
12:53 PM 73.0 °F - 28.9 °F 20% 29.70 in 10.0 mi NW 12.7 mph 26.5 mph N/A   Clear
1:53 PM 73.9 °F - 28.9 °F 19% 29.68 in 10.0 mi West 11.5 mph 20.7 mph N/A   Clear
2:53 PM 75.9 °F - 28.0 °F 17% 29.63 in 10.0 mi West 18.4 mph 21.9 mph N/A   Clear
3:53 PM 75.9 °F - 27.0 °F 16% 29.64 in 10.0 mi West 11.5 mph - N/A   Clear
4:53 PM 73.9 °F - 28.9 °F 19% 29.65 in 10.0 mi West 4.6 mph - N/A   Clear
5:53 PM 75.9 °F - 27.0 °F 16% 29.66 in 10.0 mi West 9.2 mph - N/A   Clear
6:53 PM 64.9 °F - 33.1 °F 31% 29.69 in 7.0 mi SSW 3.5 mph - N/A   Clear
7:34 PM 57.2 °F - 33.8 °F 41% 29.70 in 2.5 mi Calm Calm - N/A   Haze
7:43 PM 60.8 °F - 30.2 °F 31% 29.71 in 5.0 mi South 3.5 mph - N/A   Haze
7:53 PM 57.9 °F - 28.9 °F 33% 29.70 in 9.0 mi Calm Calm - N/A   Clear
8:53 PM 52.0 °F - 32.0 °F 47% 29.70 in 9.0 mi SW 3.5 mph - N/A   Clear
9:53 PM 53.1 °F - 34.0 °F 48% 29.70 in 9.0 mi West 5.8 mph - N/A   Mostly Cloudy
10:53 PM 53.1 °F - 33.1 °F 47% 29.70 in 10.0 mi SW 4.6 mph - N/A   Scattered Clouds
11:53 PM 46.9 °F - 33.1 °F 59% 29.70 in 10.0 mi WSW 6.9 mph - N/A   Clear